Flag for Argentina Weather past 2 weeks in Jujuy, Jujuy, Argentina

Now
59 °F

Mostly cloudy.


Feels Like: 59 °F
Forecast: N/A
Wind: No wind

Location: Jujuy Aerodrome

Current Time: May 29, 2015 at 7:35:47 PM

Latest Report: May 29, 2015 at 7:00 PM


Visibility: N/A

Pressure: 29.95 "Hg

Humidity: 94%

Dew point: 57 °F

Location of JujuyLocation

Historic Weather in Jujuy — Graph

°F

Jujuy temperature yesterday

Maximum temperature yesterday: 64 °F (at 4:00 PM)
Minimum temperature yesterday: 57 °F (at 3:00 AM)
Average temperature yesterday: 59 °F

Past Weeks' High & Low Weather Summary

 TemperatureHumidityPressure
High79 °F (May 22, 3:00 PM)100% (May 14, 11:00 PM)30.27 "Hg (May 14, 11:00 PM)
Low52 °F (May 16, 8:00 AM)45% (May 22, 3:00 PM)29.80 "Hg (May 22, 6:00 PM)
Average63 °F84%30.04 "Hg
* Reported May 14 6:00 PM — May 29 6:00 PM, Jujuy, Weather by CustomWeather, © 2015

Note: Actual official high and low records may vary slightly from our data, if they occured in-between our weather recording intervals... More about our weather records

Advertising

Jujuy weather history for previous 24 hours

 ConditionsComfort  
Time TempWeatherWind HumidityBarometerVisibility
6:00 PM
Fri, May 29
61 °FMostly cloudy.No wind83%29.92 "HgN/A
5:00 PM61 °FMore clouds than sun.2 mph77%29.89 "HgN/A
4:00 PM63 °FMore clouds than sun.8 mph73%29.86 "HgN/A
3:00 PM61 °FMore clouds than sun.6 mph72%29.86 "HgN/A
2:00 PM63 °FMore clouds than sun.8 mph68%29.86 "HgN/A
1:00 PM63 °FBroken clouds.7 mph73%29.86 "HgN/A
12:00 PM61 °FMore clouds than sun.6 mph77%29.89 "HgN/A
11:00 AM59 °FMore clouds than sun.3 mph88%29.95 "HgN/A
10:00 AM57 °FMore clouds than sun.3 mph94%29.92 "HgN/A
8:00 AM55 °FMore clouds than sun.5 mph94%29.92 "Hg4 mi
7:00 AM55 °FMore clouds than sun.5 mph94%29.92 "HgN/A
5:00 AM55 °FPartly cloudy.2 mph94%29.92 "HgN/A
4:00 AM57 °FMostly cloudy.6 mph88%29.95 "HgN/A
3:00 AM57 °FMostly cloudy.9 mph88%29.95 "HgN/A
2:00 AM57 °FMostly cloudy.6 mph88%29.98 "HgN/A
1:00 AM57 °FMostly cloudy.6 mph94%30.01 "HgN/A
12:00 AM57 °FMostly cloudy.6 mph94%30.04 "HgN/A
11:00 PM
Thu, May 28
59 °FMostly cloudy.No wind88%30.04 "HgN/A
10:00 PM59 °FMostly cloudy.2 mph88%30.07 "HgN/A
9:00 PM59 °FMostly cloudy.3 mph88%30.04 "HgN/A
8:00 PM59 °FPartly cloudy.5 mph88%30.07 "HgN/A
7:00 PM59 °FPartly cloudy.5 mph88%30.04 "HgN/A
Weather by CustomWeather, © 2015

See weather overviewHow to use our weather pages